GW6445 Weather Reports


time (UTC)temp
F
wind
direction
speed
knots
gust
knots
rain 1hr
in
rain 24hr
in
rain mn
in
humidity
%
barometer
mb
20260507142640 51 326 0.0 1.7 0.00 0.00 0.00 81 1020.3
20260507142126 51 355 1.7 3.5 0.00 0.00 0.00 81 1020.3
20260507141401 51 344 1.7 2.6 0.00 0.00 0.00 81 1020.4
20260507141112 50 305 1.7 4.3 0.00 0.00 0.00 81 1020.4
20260507140344 51 333 0.0 3.5 0.00 0.00 0.00 81 1020.2
20260507135840 51 259 0.0 1.7 0.00 0.00 0.00 82 1020.3
20260507135330 50 354 0.0 1.7 0.00 0.00 0.00 82 1020.2
20260507134826 50 336 1.7 2.6 0.00 0.00 0.00 82 1020.0
20260507134806 50 334 2.6 2.6 0.00 0.00 0.00 82 1020.1
20260507133813 50 343 1.7 2.6 0.00 0.00 0.00 82 1020.0
20260507133259 51 338 1.7 2.6 0.00 0.00 0.00 82 1020.1
20260507132755 51 346 0.0 0.9 0.00 0.00 0.00 82 1019.9
20260507132240 51 312 0.0 1.7 0.00 0.00 0.00 82 1019.9
20260507131736 51 89 0.0 0.9 0.00 0.00 0.00 82 1019.9
20260507131221 51 330 0.0 1.7 0.00 0.00 0.00 82 1019.9
20260507130716 51 238 0.0 1.7 0.00 0.00 0.00 82 1020.0
20260507130655 51 296 0.0 1.7 0.00 0.00 0.00 82 1019.9
20260507125917 51 323 1.7 1.7 0.00 0.00 0.00 82 1020.0
20260507125152 51 349 0.9 1.7 0.00 0.00 0.00 82 1020.1
20260507124638 51 124 0.0 1.7 0.00 0.00 0.00 81 1020.0
20260507124133 51 306 0.0 1.7 0.00 0.00 0.00 81 1020.0
20260507123619 51 305 1.7 1.7 0.00 0.00 0.00 81 1020.2
20260507123115 51 203 0.0 1.7 0.00 0.00 0.00 81 1020.0
20260507122606 51 324 0.9 1.7 0.00 0.00 0.00 81 1020.0
20260507122101 51 0 0.0 1.7 0.00 0.00 0.00 81 1020.0
20260507121547 51 229 0.0 0.9 0.00 0.00 0.00 81 1020.1
20260507121042 51 141 0.0 1.7 0.00 0.00 0.00 81 1020.1
20260507120534 51 321 0.0 1.7 0.00 0.00 0.00 81 1020.3
20260507120029 51 332 0.0 1.7 0.00 0.00 0.00 80 1020.0
20260507115521 51 248 0.9 1.7 0.00 0.00 0.00 80 1020.1
20260507115016 51 81 0.0 1.7 0.00 0.00 0.00 81 1020.3
20260507114508 51 216 0.0 0.9 0.00 0.00 0.00 81 1020.4
20260507114448 51 258 0.9 1.7 0.00 0.00 0.00 80 1020.4
20260507113709 51 300 0.9 0.9 0.00 0.00 0.00 80 1020.3
20260507112945 52 264 0.0 1.7 0.00 0.00 0.00 80 1020.3
20260507112431 52 261 0.9 1.7 0.00 0.00 0.00 80 1020.3
20260507111926 52 293 0.0 1.7 0.00 0.00 0.00 80 1020.5
20260507111633 52 310 0.0 0.9 0.00 0.00 0.00 80 1020.4
20260507110906 52 297 0.0 0.9 0.00 0.00 0.00 79 1020.2
20260507110358 52 292 0.0 1.7 0.00 0.00 0.00 80 1020.4
20260507105853 52 315 0.0 1.7 0.00 0.00 0.00 79 1020.3
20260507105346 52 355 0.0 0.9 0.00 0.00 0.00 79 1020.4
20260507104840 52 297 0.0 0.9 0.00 0.00 0.00 79 1020.3
20260507104333 52 124 0.0 0.9 0.00 0.00 0.00 79 1020.2
20260507103824 52 44 0.0 1.7 0.00 0.00 0.00 78 1020.5
20260507103320 52 29 0.0 0.9 0.00 0.00 0.00 78 1020.6
20260507102811 52 338 0.9 0.9 0.00 0.00 0.00 78 1020.7
20260507102307 52 324 0.0 1.7 0.00 0.00 0.00 78 1020.5
20260507101752 52 31 0.0 0.9 0.00 0.00 0.00 78 1020.5
20260507101247 52 45 0.9 1.7 0.00 0.00 0.00 77 1020.6
20260507100739 52 312 0.9 0.9 0.00 0.00 0.00 77 1020.7
20260507100234 52 209 0.0 0.9 0.00 0.00 0.00 77 1020.6
20260507095720 52 17 0.0 1.7 0.00 0.00 0.00 76 1020.7
20260507095215 52 269 0.0 1.7 0.00 0.00 0.00 77 1020.9
20260507094706 52 339 0.0 1.7 0.00 0.00 0.00 77 1020.7
20260507094203 52 311 1.7 2.6 0.00 0.00 0.00 78 1020.8
20260507093655 53 332 0.0 1.7 0.00 0.00 0.00 79 1020.8
20260507093149 53 62 0.0 0.9 0.00 0.00 0.00 79 1020.8
20260507092635 53 302 0.0 0.9 0.00 0.00 0.00 79 1020.7
20260507092130 53 0 1.7 1.7 0.00 0.00 0.00 79 1020.8
20260507091622 53 306 0.0 1.7 0.00 0.00 0.00 79 1021.1
20260507091117 53 309 0.0 0.9 0.00 0.00 0.00 79 1020.9
20260507090603 53 326 1.7 1.7 0.00 0.00 0.00 79 1021.2
20260507090058 53 309 0.0 0.0 0.00 0.00 0.00 79 1021.0
20260507085550 53 315 0.0 0.9 0.00 0.00 0.00 79 1021.0
20260507085045 53 41 0.0 0.9 0.00 0.00 0.00 78 1021.0
20260507084531 53 356 0.0 1.7 0.00 0.00 0.00 78 1021.2
20260507084025 53 337 0.0 1.7 0.00 0.00 0.00 79 1021.1
20260507083518 53 293 0.9 1.7 0.00 0.00 0.00 79 1021.0
20260507083233 53 303 1.7 1.7 0.00 0.00 0.00 79 1021.1
20260507082505 53 307 0.9 1.7 0.00 0.00 0.00 79 1021.2
20260507082219 53 240 0.0 2.6 0.00 0.00 0.00 80 1021.1
20260507081453 53 309 0.0 1.7 0.00 0.00 0.00 80 1021.2
20260507080944 53 315 0.0 1.7 0.00 0.00 0.00 80 1021.1
20260507080433 53 322 2.6 2.6 0.00 0.00 0.00 80 1021.1
20260507080416 53 41 0.0 1.7 0.00 0.00 0.00 80 1021.2
20260507075909 53 321 0.0 1.7 0.00 0.00 0.00 80 1021.0
20260507074911 53 275 0.0 1.7 0.00 0.00 0.00 80 1021.0
20260507074407 53 244 0.0 1.7 0.00 0.00 0.00 81 1021.0
20260507073853 53 239 0.0 1.7 0.00 0.00 0.00 82 1021.1
20260507073348 53 284 0.9 1.7 0.00 0.00 0.00 81 1021.2
20260507072840 53 286 1.7 2.6 0.00 0.00 0.00 81 1021.1
20260507072335 53 232 0.9 1.7 0.00 0.00 0.00 81 1021.1
20260507071827 53 261 0.0 1.7 0.00 0.00 0.00 80 1020.9
20260507071321 53 297 0.0 1.7 0.00 0.00 0.00 80 1021.0
20260507071028 53 323 0.0 1.7 0.00 0.00 0.00 80 1021.1
20260507070303 53 211 1.7 1.7 0.00 0.00 0.00 80 1020.8
20260507070012 53 345 0.9 3.5 0.00 0.00 0.00 79 1020.9
20260507065244 53 279 0.9 2.6 0.00 0.00 0.00 79 1020.8
20260507064735 53 318 0.9 2.6 0.00 0.00 0.00 79 1020.9
20260507064225 53 296 2.6 4.3 0.00 0.00 0.00 79 1020.8
20260507063720 53 265 0.9 4.3 0.00 0.00 0.00 78 1020.8
20260507063212 53 203 1.7 4.3 0.00 0.00 0.00 78 1020.9
20260507062703 53 338 3.5 3.5 0.00 0.00 0.00 79 1020.9
20260507062153 53 8 0.0 2.6 0.00 0.00 0.00 79 1021.0
20260507061648 53 111 0.9 6.1 0.00 0.00 0.00 80 1020.8
20260507061140 54 142 0.0 1.7 0.00 0.00 0.00 80 1020.9
20260507060631 54 277 2.6 2.6 0.00 0.00 0.00 81 1020.9
20260507060121 54 328 0.9 6.1 0.00 0.00 0.00 81 1020.7
20260507055616 54 23 2.6 3.5 0.00 0.00 0.00 82 1021.0
20260507055326 54 253 3.5 3.5 0.00 0.00 0.00 82 1021.0
20260507054552 54 92 1.7 2.6 0.00 0.00 0.00 82 1021.0
20260507054047 54 26 1.7 4.3 0.00 0.00 0.00 82 1020.9
20260507053533 54 26 1.7 6.1 0.00 0.00 0.00 83 1020.9
20260507053028 54 174 0.9 3.5 0.00 0.00 0.00 83 1020.8
20260507052520 54 22 0.0 2.6 0.00 0.00 0.00 82 1020.7
20260507052231 54 327 0.9 3.5 0.00 0.00 0.00 82 1020.9
20260507051504 54 351 1.7 4.3 0.00 0.00 0.00 82 1020.7
20260507050956 55 53 0.0 3.5 0.00 0.00 0.00 82 1020.7
20260507050709 55 8 1.7 2.6 0.00 0.00 0.00 81 1021.0
20260507045937 55 319 1.7 2.6 0.00 0.00 0.00 81 1020.9
20260507045432 55 29 2.6 4.3 0.00 0.00 0.00 81 1020.9
20260507044923 55 22 1.7 1.7 0.00 0.00 0.00 81 1020.7
20260507044416 55 302 1.7 3.5 0.00 0.00 0.00 81 1020.9
20260507043911 55 96 2.6 5.2 0.00 0.00 0.00 81 1020.7
20260507043403 55 279 0.0 6.1 0.00 0.00 0.00 81 1020.7
20260507043119 55 318 0.9 5.2 0.00 0.00 0.00 81 1020.5
20260507042350 55 158 0.9 4.3 0.00 0.00 0.00 81 1020.6
20260507042106 55 62 2.6 5.2 0.00 0.00 0.00 80 1020.3
20260507041337 56 15 2.6 2.6 0.00 0.00 0.00 80 1020.6
20260507040832 56 228 0.0 5.2 0.00 0.00 0.00 80 1020.5
20260507040545 56 211 1.7 3.5 0.00 0.00 0.00 80 1020.5
20260507035816 56 55 1.7 3.5 0.00 0.00 0.00 80 1020.5
20260507035306 56 40 2.6 5.2 0.00 0.00 0.00 79 1020.3
20260507035021 56 19 4.3 5.2 0.00 0.00 0.00 79 1020.4
20260507034510 56 23 4.3 5.2 0.00 0.00 0.00 79 1020.2
20260507033744 56 306 1.7 4.3 0.00 0.00 0.00 79 1020.2
20260507033723 56 9 2.6 4.3 0.00 0.00 0.00 79 1020.1
20260507032730 57 26 2.6 2.6 0.00 0.00 0.00 79 1020.0
20260507032216 57 108 1.7 3.5 0.00 0.00 0.00 79 1019.8
20260507031711 57 296 0.0 5.2 0.00 0.00 0.00 79 1020.0
20260507031203 57 15 1.7 5.2 0.00 0.00 0.00 78 1019.7
20260507030658 57 26 1.7 4.3 0.00 0.00 0.00 78 1019.7
20260507030150 58 73 2.6 4.3 0.00 0.00 0.00 78 1019.6
20260507025645 58 3 1.7 4.3 0.00 0.00 0.00 77 1019.6
20260507025130 58 18 2.6 5.2 0.00 0.00 0.00 77 1019.5
20260507024626 58 9 0.9 5.2 0.00 0.00 0.00 77 1019.5
20260507024117 58 311 1.7 5.2 0.00 0.00 0.00 77 1019.4
20260507023613 59 33 2.6 3.5 0.00 0.00 0.00 76 1019.4
20260507023059 59 12 1.7 5.2 0.00 0.00 0.00 76 1019.4
20260507022554 59 284 1.7 2.6 0.00 0.00 0.00 75 1019.4
20260507022045 60 334 6.1 7.0 0.00 0.00 0.00 73 1019.2
20260507021801 61 180 1.7 4.3 0.00 0.00 0.00 72 1019.3
20260507021026 62 30 2.6 3.5 0.00 0.00 0.00 72 1019.3
20260507020521 61 214 2.6 3.5 0.00 0.00 0.00 73 1019.2
20260507020234 62 186 0.9 5.2 0.00 0.00 0.00 72 1019.2
20260507015503 62 339 3.5 4.3 0.00 0.00 0.00 72 1019.2
20260507015000 63 283 0.0 2.6 0.00 0.00 0.00 70 1019.1
20260507014448 63 25 3.5 5.2 0.00 0.00 0.00 70 1019.3
20260507013943 63 31 2.6 5.2 0.00 0.00 0.00 70 1019.4
20260507013916 62 18 1.7 3.5 0.00 0.00 0.00 72 1019.4
20260507013144 61 68 0.9 4.3 0.00 0.00 0.00 73 1019.5
20260507012411 62 55 2.6 5.2 0.00 0.00 0.00 72 1019.4
20260507012125 62 39 4.3 4.3 0.00 0.00 0.00 72 1019.4
20260507011357 62 293 2.6 6.1 0.00 0.00 0.00 71 1019.4
20260507010852 63 349 0.9 5.2 0.00 0.00 0.00 70 1019.3
20260507010343 64 330 3.5 5.2 0.00 0.00 0.00 69 1019.5
20260507005835 64 104 1.7 7.0 0.00 0.00 0.00 69 1019.2
20260507005330 65 93 0.0 6.1 0.00 0.00 0.00 68 1019.2
20260507005040 64 343 4.3 7.0 0.00 0.00 0.00 68 1019.1
20260507004316 65 340 5.2 9.6 0.00 0.00 0.00 67 1019.0
20260507003808 66 108 2.6 4.3 0.00 0.00 0.00 66 1019.1
20260507003525 66 58 1.7 6.1 0.00 0.00 0.00 67 1019.1
20260507002755 66 299 0.9 6.1 0.00 0.00 0.00 67 1019.2
20260507002248 66 313 3.5 5.2 0.00 0.00 0.00 68 1019.2
20260507001736 66 39 1.7 6.1 0.00 0.00 0.00 67 1019.0
20260507001231 66 126 3.5 3.5 0.00 0.00 0.00 69 1019.0
20260507000943 66 319 2.6 3.5 0.00 0.00 0.00 69 1019.2
20260507000216 66 201 3.5 3.5 0.00 0.00 0.00 69 1019.0
20260506235711 66 310 2.6 7.8 0.00 0.00 0.00 69 1019.1
20260506235202 67 20 1.7 5.2 0.00 0.00 0.00 68 1019.0
20260506234656 67 34 3.5 5.2 0.00 0.00 0.00 68 1019.0
20260506234148 66 40 1.7 3.5 0.00 0.00 0.00 69 1019.0
20260506233639 66 47 2.6 5.2 0.00 0.00 0.00 69 1019.1
20260506233134 66 352 1.7 8.7 0.00 0.00 0.00 69 1018.8
20260506232844 67 66 2.6 3.5 0.00 0.00 0.00 68 1018.8
20260506232116 68 14 2.6 3.5 0.00 0.00 0.00 67 1018.7
20260506231608 68 135 3.5 4.3 0.00 0.00 0.00 68 1019.0
20260506231103 68 326 2.6 4.3 0.00 0.00 0.00 66 1019.0
20260506230814 69 325 4.3 4.3 0.00 0.00 0.00 66 1018.8
20260506230049 68 311 1.7 7.8 0.00 0.00 0.00 67 1018.8
20260506225542 69 286 2.6 3.5 0.00 0.00 0.00 65 1019.0
20260506225037 70 258 1.7 2.6 0.00 0.00 0.00 64 1019.1
20260506224528 70 78 1.7 4.3 0.00 0.00 0.00 63 1019.1
20260506224023 70 317 0.0 4.3 0.00 0.00 0.00 64 1019.1
20260506223509 68 255 1.7 4.3 0.00 0.00 0.00 66 1019.2
20260506223004 68 282 0.0 3.5 0.00 0.00 0.00 68 1019.3
20260506222450 67 46 0.0 2.6 0.00 0.00 0.00 68 1019.3
20260506221945 67 76 0.0 2.6 0.00 0.00 0.00 69 1019.4
20260506221431 67 38 1.7 3.5 0.00 0.00 0.00 68 1019.5
20260506220926 67 355 2.6 3.5 0.00 0.00 0.00 68 1019.4
20260506220417 67 338 0.9 4.3 0.00 0.00 0.00 69 1019.5
20260506215912 66 351 4.3 4.3 0.00 0.00 0.00 69 1019.5
20260506215404 66 357 3.5 7.0 0.00 0.00 0.00 69 1019.5
20260506214855 66 36 0.0 2.6 0.00 0.00 0.00 68 1019.4
20260506214350 67 113 3.5 3.5 0.00 0.00 0.00 68 1019.6
20260506213836 67 8 1.7 4.3 0.00 0.00 0.00 67 1019.4
20260506213331 68 290 0.0 5.2 0.00 0.00 0.00 67 1019.3
20260506212823 68 191 0.9 4.3 0.00 0.00 0.00 67 1019.1
20260506212318 67 93 1.7 4.3 0.00 0.00 0.00 69 1019.5
20260506211811 66 112 0.0 2.6 0.00 0.00 0.00 71 1019.5
20260506211306 65 163 0.9 4.3 0.00 0.00 0.00 71 1019.6
20260506210752 65 300 1.7 3.5 0.00 0.00 0.00 70 1019.8
20260506210247 65 124 2.6 3.5 0.00 0.00 0.00 72 1019.9
20260506205738 65 180 1.7 4.3 0.00 0.00 0.00 72 1019.8
20260506205233 65 104 1.7 3.5 0.00 0.00 0.00 72 1020.0
20260506204720 65 34 0.0 2.6 0.00 0.00 0.00 71 1020.0
20260506204215 65 140 0.0 2.6 0.00 0.00 0.00 71 1019.9
20260506203707 65 359 0.9 2.6 0.00 0.00 0.00 71 1019.8
20260506203201 64 23 1.7 3.5 0.00 0.00 0.00 72 1019.9
20260506202654 64 315 3.5 3.5 0.00 0.00 0.00 71 1019.8
20260506202149 65 68 0.9 1.7 0.00 0.00 0.00 71 1019.7
20260506201640 64 117 0.0 1.7 0.00 0.00 0.00 73 1019.7
20260506201136 63 49 0.9 2.6 0.00 0.00 0.00 74 1019.8
20260506200621 63 109 0.9 2.6 0.00 0.00 0.00 74 1019.9
20260506200336 63 6 1.7 2.6 0.00 0.00 0.00 76 1020.1
20260506195602 62 115 0.0 4.3 0.00 0.00 0.00 76 1020.1
20260506195057 62 240 0.0 1.7 0.00 0.00 0.00 77 1020.1
20260506194549 61 8 1.7 3.5 0.00 0.00 0.00 78 1020.4
20260506194044 61 319 4.3 4.3 0.00 0.00 0.00 78 1020.2
20260506193536 61 23 0.9 3.5 0.00 0.00 0.00 78 1020.5
20260506193030 61 310 1.7 3.5 0.00 0.00 0.00 78 1020.3
20260506192524 61 341 0.9 1.7 0.00 0.00 0.00 76 1020.3
20260506192015 61 309 0.0 4.3 0.00 0.00 0.00 76 1020.6
20260506191504 62 180 0.9 4.3 0.00 0.00 0.00 76 1020.4
20260506191000 62 180 1.7 1.7 0.00 0.00 0.00 76 1020.2
20260506190711 61 269 0.0 2.6 0.00 0.00 0.00 77 1020.2
20260506185943 61 225 3.5 5.2 0.00 0.00 0.00 76 1020.3
20260506185439 61 260 1.7 2.6 0.00 0.00 0.00 77 1020.3
20260506184930 61 242 1.7 2.6 0.00 0.00 0.00 77 1020.2
20260506184426 61 247 0.0 2.6 0.00 0.00 0.00 77 1020.2
20260506183414 60 284 0.9 1.7 0.00 0.00 0.00 79 1020.2
20260506182907 61 149 0.0 2.6 0.00 0.00 0.00 80 1020.3
20260506182401 60 289 1.7 4.3 0.00 0.00 0.00 80 1020.0
20260506181855 60 69 0.0 3.5 0.00 0.00 0.00 82 1020.2
20260506181348 59 97 1.7 1.7 0.00 0.00 0.00 83 1020.3
20260506180841 59 99 0.0 1.7 0.00 0.00 0.00 83 1020.4
20260506180335 58 168 0.0 1.7 0.00 0.00 0.00 83 1020.3
20260506175821 58 226 2.6 3.5 0.00 0.00 0.00 83 1020.4
20260506175316 59 134 0.0 1.7 0.00 0.00 0.00 82 1020.2
20260506174807 59 330 0.0 1.7 0.00 0.00 0.00 83 1020.3
20260506174524 58 319 0.0 1.7 0.00 0.00 0.00 83 1020.3
20260506173750 58 356 0.0 1.7 0.00 0.00 0.00 84 1020.2
20260506173244 58 78 0.0 1.7 0.00 0.00 0.00 85 1020.2
20260506172736 57 190 1.7 3.5 0.00 0.00 0.00 84 1020.1
20260506172231 58 195 0.9 4.3 0.00 0.00 0.00 84 1020.2
20260506171717 58 214 0.0 0.9 0.00 0.00 0.00 84 1020.2
20260506171432 57 231 1.7 2.6 0.00 0.00 0.00 84 1020.1
20260506170704 57 238 0.9 1.7 0.00 0.00 0.00 85 1020.0
20260506170421 57 221 0.9 3.5 0.00 0.00 0.00 85 1020.0
20260506165905 57 215 0.9 1.7 0.00 0.00 0.00 85 1020.1
20260506165140 57 196 2.6 2.6 0.00 0.00 0.00 85 1020.2
20260506164631 57 213 1.7 1.7 0.00 0.00 0.00 85 1020.3
20260506164127 57 233 0.9 2.6 0.00 0.00 0.00 85 1020.3
20260506163613 57 209 0.9 0.9 0.00 0.00 0.00 85 1020.2
20260506163108 57 184 1.7 3.5 0.00 0.00 0.00 84 1020.2
20260506162600 57 275 0.9 2.6 0.00 0.00 0.00 85 1020.0
20260506162056 57 128 0.9 3.5 0.00 0.00 0.00 84 1020.1
20260506161548 57 118 0.0 2.6 0.00 0.00 0.00 85 1020.2
20260506161300 57 312 0.9 1.7 0.00 0.00 0.00 85 1020.2
20260506160528 57 222 2.6 2.6 0.00 0.00 0.00 84 1020.0
20260506160023 57 160 0.0 1.7 0.00 0.00 0.00 84 1019.8
20260506155515 57 7 0.9 1.7 0.00 0.00 0.00 85 1019.7
20260506155007 56 82 1.7 1.7 0.00 0.00 0.00 85 1019.7
20260506154502 56 216 1.7 1.7 0.00 0.00 0.00 86 1019.5
20260506153955 56 9 0.9 2.6 0.00 0.00 0.00 86 1019.5
20260506153449 56 114 0.0 3.5 0.00 0.00 0.00 86 1019.5
20260506152941 56 131 3.5 4.3 0.00 0.00 0.00 86 1019.5
20260506152436 56 78 0.9 3.5 0.00 0.00 0.00 87 1019.5
20260506152142 55 119 0.9 1.7 0.00 0.00 0.00 88 1019.7
20260506151417 55 147 0.0 1.7 0.00 0.00 0.00 88 1019.9
20260506150903 55 89 0.0 1.7 0.00 0.00 0.00 88 1020.2
20260506150358 55 356 0.9 2.6 0.00 0.00 0.00 88 1020.2
20260506145844 55 168 0.0 1.7 0.00 0.00 0.00 88 1020.2
20260506145339 55 20 0.0 1.7 0.00 0.00 0.00 88 1020.4
20260506144831 55 220 0.0 2.6 0.00 0.00 0.00 88 1020.1
20260506144541 55 77 0.9 2.6 0.00 0.00 0.00 88 1020.1
20260506144036 55 310 1.7 2.6 0.00 0.00 0.00 88 1019.8
20260506143308 54 342 0.0 1.7 0.00 0.00 0.00 88 1020.0